Location: Cerezo de Arriba
(41.2389°N, 3.5585°W)
Time: 15:32:10
(UTC+00:00)

Cosmos 1934 Rocket - Pass Details

Date: 19 May 2025
Orbit: 938 x 997 km, 83.0° (Epoch: 23 June)

Event Time Altitude Azimuth Distance (km) Brightness Sun altitude
Rises 23:10:39 0° 352° (N) 3,673 8.3 -27.2°
Reaches altitude 10° 23:13:09 10° 352° (N) 2,730 7.3 -27.3°
Maximum altitude 23:19:26 90° 258° (WSW) 991 3.9 -27.6°
Enters shadow 23:20:04 74° 175° (S) 1,024 3.8 -27.7°
